User: anonymous
Location: Unspecified
(0.0000°N, 0.0000°E)
Time: 04:10:59
(UTC+02:00)
Language:

GPS 2-12 Rocket1 - Orbit

View from above orbital plane
View from above orbital plane
View from above satellite
View from above satellite

Ground track
Ground track

The orbit data is extracted from the following two-line orbital elements,

1 21891U 92009B   14263.20928847  .00002326  00000-0  23800-3 0  2999
2 21891 019.9961 198.5439 0049005 336.6286 023.1908 14.81039395217544
Epoch (UTC): 20 September 2014 05:01:22
Eccentricity: 0.0049005
inclination: 19.9961°
perigee height: 592 km
apogee height: 660 km
right ascension of ascending node: 198.5439°
argument of perigee: 336.6286°
revolutions per day: 14.81039395
mean anomaly at epoch: 23.1908°
orbit number at epoch: 21754

The dashed part of the orbit path shows where the satellite is in the earth's shadow,  

DLR